SQ5SUI-3 Weather Reports


time (UTC)temp
C
wind
direction
speed
KPH
gust
KPH
rain 1hr
cm
rain 24hr
cm
rain mn
cm
humidity
%
barometer
mb
20260905222121 12 88 4.8 12.9 0.00 0.18 0.00 84 1010.1
20260905215121 13 228 4.8 11.3 0.00 0.18 0.18 82 1010.0
20260905212121 13 327 4.8 14.5 0.00 0.18 0.18 82 1010.5
20260905205122 13 187 6.4 12.9 0.00 0.23 0.18 81 1010.7
20260905202121 13 212 4.8 14.5 0.00 0.25 0.18 80 1010.9
20260905195122 13 314 4.8 12.9 0.00 0.25 0.18 83 1011.0
20260905192122 13 270 3.2 12.9 0.03 0.25 0.18 85 1011.1
20260905185121 13 270 3.2 9.7 0.05 0.25 0.18 91 1011.3
20260905182122 13 228 4.8 8.0 0.05 0.23 0.13 87 1011.1
20260905175121 13 268 1.6 4.8 0.03 0.20 0.10 84 1011.0
20260905172121 13 227 0.0 3.2 0.00 0.18 0.08 81 1011.9
20260905165122 14 245 0.0 4.8 0.00 0.18 0.08 72 1012.2
20260905162122 16 270 8.0 19.3 0.00 0.18 0.08 61 1012.5
20260905155121 20 202 9.7 19.3 0.00 0.18 0.08 43 1013.1
20260905152122 20 268 4.8 16.1 0.00 0.18 0.08 42 1013.9
20260905145122 20 202 9.7 20.9 0.00 0.18 0.08 40 1014.0
20260905142121 21 232 8.0 29.0 0.00 0.18 0.08 35 1013.8
20260905135122 22 240 6.4 33.8 0.00 0.18 0.08 34 1014.1
20260905132123 21 268 9.7 40.2 0.00 0.18 0.08 39 1013.9
20260905125122 21 225 9.7 30.6 0.00 0.18 0.08 42 1014.3
20260905122121 21 263 4.8 35.4 0.00 0.18 0.08 39 1014.1
20260905115123 20 186 8.0 27.4 0.00 0.18 0.08 46 1013.6
20260905112122 21 233 6.4 24.1 0.00 0.18 0.08 48 1013.7
20260905105121 20 247 6.4 29.0 0.00 0.18 0.08 47 1014.0
20260905102121 20 196 9.7 17.7 0.00 0.18 0.08 51 1014.2
20260905095122 21 276 9.7 25.7 0.00 0.18 0.08 51 1014.2
20260905092122 20 193 6.4 19.3 0.00 0.18 0.08 56 1014.3
20260905085122 18 226 4.8 29.0 0.00 0.18 0.08 61 1014.4
20260905082121 19 223 8.0 24.1 0.00 0.18 0.08 62 1014.6
20260905075121 18 271 6.4 24.1 0.00 0.18 0.08 66 1014.4
20260905072121 16 203 4.8 17.7 0.00 0.18 0.08 72 1014.6
20260905065122 16 181 9.7 14.5 0.00 0.18 0.08 77 1015.1
20260905062122 16 239 3.2 19.3 0.00 0.18 0.08 79 1015.4
20260905055121 16 181 4.8 14.5 0.00 0.18 0.08 80 1015.5
20260905052123 16 274 4.8 16.1 0.00 0.18 0.08 82 1015.8
20260905045122 15 317 3.2 12.9 0.00 0.18 0.08 85 1016.4
20260905042121 15 253 4.8 11.3 0.00 0.18 0.08 87 1016.9
20260905035122 15 115 4.8 14.5 0.00 0.18 0.08 89 1017.7
20260905032122 15 94 8.0 14.5 0.00 0.18 0.08 91 1017.7
20260905025123 15 135 3.2 12.9 0.03 0.18 0.08 93 1017.8
20260905022122 15 135 4.8 14.5 0.03 0.18 0.08 92 1018.1
20260905015122 15 132 4.8 12.9 0.00 0.13 0.05 90 1018.5
20260905012122 16 181 14.5 29.0 0.00 0.13 0.05 85 1018.4
20260905005122 16 185 6.4 17.7 0.05 0.13 0.05 85 1018.7
20260905002122 16 184 9.7 19.3 0.05 0.13 0.05 88 1019.2
20260904235121 17 223 3.2 9.7 0.00 0.08 0.00 90 1019.7
20260904232122 17 178 4.8 14.5 0.00 0.08 0.00 90 1020.6
20260904225123 17 181 3.2 8.0 0.00 0.08 0.00 91 1020.6